Regional Weather Roundup
Issued by NWS

Home | Current Version | Previous Version | Graphics & Text | Print | Product List | Glossary On
Versions: 1 2 3 4 5 6 7 8 9 10 11 12 13 14 15 16 17 18 19 20 21 22 23 24 25 26 27 28 29 30 31 32 33 34 35 36 37 38 39 40 41 42 43 44 45 46 47 48 49 50
000
ASUS44 KMEG 292300
RWRTN
TENNESSEE HOURLY STATE WEATHER ROUNDUP
NATIONAL WEATHER SERVICE MEMPHIS TN
600 PM CDT FRI APR 29 2016

TNZ002-004-019-021-049-052-054-088>092-300000-
WEST TENNESSEE

CITY           SKY/WX    TMP DP  RH WIND       PRES   REMARKS
MEMPHIS INTL   CLOUDY    67  62  84 SE13      29.86F
NWS MEMPHIS      N/A     65 N/A N/A MISG        N/A
JACKSON        CLOUDY    65  60  84 E9        29.91F
DYERSBURG      CLOUDY    64  59  82 SE13        N/A
UNION CITY     CLOUDY    63  61  94 SE7       29.91S
LEXINGTON      SUNNY     64  59  82 CALM      29.94R
$$

TNZ008-025-027-028-033-062-065-066-300000-
NORTH MIDDLE TENNESSEE

CITY           SKY/WX    TMP DP  RH WIND       PRES   REMARKS
NASHVILLE      CLOUDY    70  59  68 W12       30.03R
CLARKSVILLE    CLOUDY    64  61  90 E5        29.98F
COOKEVILLE     SUNNY     73  55  53 CALM      30.00S
CROSSVILLE     CLOUDY    72  46  39 N6        30.04S
$$

TNZ061-075-076-078-094-096-097-300000-
SOUTH MIDDLE TENNESSEE

CITY           SKY/WX    TMP DP  RH WIND       PRES   REMARKS
TULLAHOMA      SUNNY     72  55  56 NW8       30.02S
WINCHESTER     SUNNY     75  54  46 CALM      30.00R
MCMINNVILLE    SUNNY     73  55  53 N5        30.01S
COLUMBIA       CLOUDY   N/A N/A N/A S5        30.03F VSB 1
SHELBYVILLE    MOSUNNY   73  61  64 NW12      30.02R
$$

TNZ017-018-042-046-047-300000-
NORTHEAST TENNESSEE

CITY           SKY/WX    TMP DP  RH WIND       PRES   REMARKS
TRI CITIES     CLOUDY    75  53  46 SW8       30.00R
$$

TNZ012-013-036-069-073-074-300000-
CENTRAL EAST TENNESSEE

CITY           SKY/WX    TMP DP  RH WIND       PRES   REMARKS
KNOXVILLE      CLOUDY    79  48  33 NE3       29.99R
OAK RIDGE      CLOUDY    79  49  34 CALM      30.00R
$$

TNZ083-085-099-300000-
SOUTHEAST TENNESSEE

CITY           SKY/WX    TMP DP  RH WIND       PRES   REMARKS
CHATTANOOGA    CLOUDY    79  52  38 NE7       29.97S
$$

SKY/WX REPORTED AS FAIR MEANS FEW OR NO CLOUDS BELOW
12 THOUSAND FEET.





USA.gov is the U.S. government's official web portal to all federal, state and local government web resources and services.